Погода в Сосновке

Россия / Ульяновская область     54°06′30″N   46°38′50″E
темп.,
°C
ветер,
м/с
пор.,
м/с
влажн.,
%
обл.,
%
осадки,
мм/ч
давл.,
гПа
погр.,
м
6 марта, сб
сб601:00−10зюз389649 0.1 1012202
04:00−11зюз389765 0.1 1014179
07:00−13з389773 0.0 1015147
10:00−10зсз249371 0.0 1016238
13:00−6сз127348 0.0 1016599
16:00−6з237774 0.0 1015802
19:00−11з129287 0.0 101521
22:00−13з129343 0.0 101520
7 марта, вс
вс701:00−14зюз23940 0.0 101421
04:00−15зюз23970 0.0 101438
07:00−16зюз339723 0.0 101361
10:00−11зюз479544 0.1 1013256
13:00−7юз588690 0.0 1011867
16:00−6юз598192 0.1 10081015
19:00−8ююз61488100 0.0 1006913
22:00−7ююз71692100 0.3 10021119
8 марта, пн
пн801:00−5ююз81692100 0.8 9971280
04:00−8зюз71589100 1.8 998921
07:00−11юз6158767 0.1 999478
10:00−7юз7147446 0.1 1000889
13:00−4юз712751 0.0 9981223
16:00−5з5109051 0.9 9971126
19:00−9зюз5139061 0.2 1000631
22:00−9з5129180 0.3 1002645
9 марта, вт
вт901:00−10зюз5119395 0.1 1003457
04:00−12зюз5119397 0.3 1004431
07:00−11з4109391 0.3 1007426
10:00−10зсз489192 0.4 1009618
13:00−9зсз4787100 0.1 1010840
16:00−10зсз4787100 0.3 1011887
19:00−13зсз389598 0.1 1012308
22:00−14зсз379692 0.3 1014236
10 марта, ср
ср1001:00−15зсз389788 0.1 1015264
04:00−19зсз379993 0.1 1016164
07:00−22з3710096 0.0 1017181
10:00−19зсз369698 0.1 1017270
13:00−15зсз358998 0.0 1017554
16:00−14зсз358799 0.1 1017677
19:00−19сз229797 0.0 101720
22:00−23зсз129849 0.0 101920